"Time","Temp","Dewpoint","Humidity","Pressure","Direction","Speed","Gust","Precip","PrecipRate"
"00:04:56","42.7","24.1","47.5","29.89","327","9.3","20","0.00","0.00"
"00:09:56","42.6","22.7","45","29.89","333","9.5","17.3","0.00","0.00"
"00:14:57","42.4","22.1","44","29.89","329","9","23","0.00","0.00"
"00:19:57","42.3","21.8","43.8","29.89","314","7.1","17.3","0.00","0.00"
"00:24:57","42.1","21.7","44","29.89","329","8.2","19.6","0.00","0.00"
"00:29:57","42","21.7","44.1","29.89","339","7.6","19.6","0.00","0.00"
"00:34:58","41.9","21.7","44.3","29.89","324","7.1","17","0.00","0.00"
"00:39:58","41.8","22","45","29.89","332","7.5","13.8","0.00","0.00"
"00:44:56","41.7","21.9","45.1","29.90","323","3.5","14","0.00","0.00"
"00:49:58","41.5","21.8","45.2","29.90","330","6.4","13","0.00","0.00"
"00:54:58","41.4","22","45.7","29.90","301","4.9","12","0.00","0.00"
"00:59:59","41.2","22.1","46.2","29.90","322","4.9","18","0.00","0.00"
"01:04:57","41.1","22.1","46.4","29.90","329","6.1","14","0.00","0.00"
"01:09:57","41","22.2","46.8","29.90","330","7.5","16.1","0.00","0.00"
"01:14:57","40.9","22.7","48","29.90","328","11.2","22","0.00","0.00"
"01:19:59","40.8","22.6","48","29.89","332","13.8","19.6","0.00","0.00"
"01:24:56","40.7","22.5","48","29.89","319","12.4","24.2","0.00","0.00"
"01:29:58","40.6","22.6","48.4","29.91","325","12.2","20","0.00","0.00"
"01:34:56","40.5","22.8","49","29.91","316","9.9","18.4","0.00","0.00"
"01:39:59","40.4","22.7","49","29.91","312","7.5","14","0.00","0.00"
"01:44:57","40.3","22.8","49.5","29.93","306","6.3","15","0.00","0.00"
"01:49:58","40.1","22.9","50","29.93","300","5","11","0.00","0.00"
"01:54:56","39.9","22.7","50","29.93","310","4.6","11.5","0.00","0.00"
"01:59:56","39.7","22.9","50.8","29.94","314","4.3","9.2","0.00","0.00"
"02:04:58","39.5","22.8","51","29.94","326","3.9","11.5","0.00","0.00"
"02:09:59","39.2","22.9","51.5","29.94","334","3.2","7","0.00","0.00"
"02:14:56","38.9","22.8","52","29.94","305","2.8","5","0.00","0.00"
"02:19:57","38.7","22.8","52.5","29.94","318","4.5","11.5","0.00","0.00"
"02:24:59","38.5","22.8","53","29.94","307","2.7","8.1","0.00","0.00"
"02:29:56","38.2","22.8","53.6","29.95","294","2.3","5.8","0.00","0.00"
"02:34:58","37.9","22.9","54.4","29.95","307","2.5","9","0.00","0.00"
"02:39:58","37.7","23","55","29.95","322","2.7","6","0.00","0.00"
"02:44:57","37.5","23.2","55.9","29.95","312","4.1","7","0.00","0.00"
"02:49:59","37.4","23.3","56.5","29.95","312","3.3","7","0.00","0.00"
"02:54:58","37.2","23.4","57","29.95","321","3.9","6.9","0.00","0.00"
"02:59:58","37","23.2","57","29.95","316","3.2","6","0.00","0.00"
"03:04:56","36.8","23","57","29.95","322","4.5","10.4","0.00","0.00"
"03:09:56","36.8","22.8","56.5","29.95","315","5.9","16.1","0.00","0.00"
"03:14:59","36.7","22.6","56.2","29.95","311","3.6","9","0.00","0.00"
"03:19:56","36.6","22.7","56.9","29.95","296","4","8","0.00","0.00"
"03:24:59","36.4","22.6","57","29.95","307","4.3","10.4","0.00","0.00"
"03:29:57","36.3","22.5","57","29.95","310","4.8","10.4","0.00","0.00"
"03:34:57","36.2","22.4","57","29.95","319","3.2","10.4","0.00","0.00"
"03:39:57","36","22.4","57.6","29.95","300","2.2","4","0.00","0.00"
"03:44:58","35.7","22.4","58.1","29.95","275","1.7","3.5","0.00","0.00"
"03:49:58","35.4","22.5","59","29.95","238","1.8","3.5","0.00","0.00"
"03:54:58","35","22.1","59","29.95","262","2","7","0.00","0.00"
"03:59:57","34.8","22.2","59.5","29.95","288","1.3","3.5","0.00","0.00"
"04:04:56","34.7","22.2","60","29.94","285","1.5","4","0.00","0.00"
"04:09:56","34.6","22.1","60","29.94","310","1.5","4","0.00","0.00"
"04:14:57","34.6","22.1","60","29.95","293","2.3","7","0.00","0.00"
"04:19:57","34.7","21.9","59.3","29.95","271","2.7","6.9","0.00","0.00"
"04:24:58","34.7","21.8","59","29.95","323","3","5","0.00","0.00"
"04:29:57","34.6","21.8","59.4","29.96","303","2.9","7","0.00","0.00"
"04:34:56","34.4","21.9","60","29.96","305","3.4","7","0.00","0.00"
"04:39:58","34.4","21.9","60","29.96","298","3.1","6","0.00","0.00"
"04:44:58","34.4","21.9","60","29.96","282","2.6","7","0.00","0.00"
"04:49:57","34.4","21.9","60","29.96","298","2.9","8","0.00","0.00"
"04:54:58","34.4","21.9","60","29.96","295","3.5","8.1","0.00","0.00"
"04:59:59","34.4","21.9","60","29.96","296","3.8","9.2","0.00","0.00"
"05:04:59","34.4","21.9","60","29.96","261","3","7","0.00","0.00"
"05:09:59","34.4","22.3","61","29.96","277","4.6","14","0.00","0.00"
"05:14:58","34.7","22.6","60.8","29.96","295","3.4","12","0.00","0.00"
"05:19:59","34.9","22.7","60.9","29.96","265","3.2","7","0.00","0.00"
"05:24:56","34.8","22.7","61","29.96","268","3","7","0.00","0.00"
"05:29:56","34.7","22.9","61.8","29.96","289","3.1","6.9","0.00","0.00"
"05:34:56","34.7","23","62","29.96","274","2.8","6","0.00","0.00"
"05:39:57","34.6","23.3","62.9","29.96","276","2.6","7","0.00","0.00"
"05:44:57","34.6","23.3","63","29.98","305","3.3","7","0.00","0.00"
"05:49:56","34.8","23.5","63","29.98","304","2","6.9","0.00","0.00"
"05:54:57","34.8","23.5","63","29.98","294","0.5","3.5","0.00","0.00"
"05:59:57","34.6","23.4","63.3","29.99","246","0.9","4","0.00","0.00"
"06:04:58","34.4","23.5","64","29.99","232","0.7","3.5","0.00","0.00"
"06:09:56","34.3","23.6","64.5","29.99","315","1.4","3.5","0.00","0.00"
"06:14:58","34.3","23.7","65","29.99","307","2.2","10.4","0.00","0.00"
"06:19:57","34.3","23.7","65","29.99","332","1.4","3.5","0.00","0.00"
"06:24:57","34.2","23.7","65","29.99","297","1.4","4","0.00","0.00"
"06:29:57","34","23.7","66","30.00","275","1.3","3.5","0.00","0.00"
"06:34:57","33.6","23.6","66.4","30.00","316","1.1","5","0.00","0.00"
"06:39:58","33.7","23.6","66.2","30.00","332","1","3.5","0.00","0.00"
"06:44:59","33.8","23.8","66.4","30.01","308","1.1","3.5","0.00","0.00"
"06:49:59","33.8","24","67","30.01","286","1.7","4","0.00","0.00"
"06:54:59","34","24.2","67.1","30.01","292","1.1","3.5","0.00","0.00"
"06:59:59","34.2","24.4","67","30.01","272","1","3.5","0.00","0.00"
"07:04:56","34.4","24.7","67.4","30.01","250","1.7","3.5","0.00","0.00"
"07:09:56","34.4","24.6","67","30.01","269","2.1","5","0.00","0.00"
"07:14:59","34.5","24.7","67","30.01","272","1.7","7","0.00","0.00"
"07:19:58","34.6","24.9","67.2","30.01","280","3","6.9","0.00","0.00"
"07:24:59","34.9","25","67","30.01","251","2.2","9","0.00","0.00"
"07:29:56","34.9","25","67","30.02","252","1.5","5","0.00","0.00"
"07:34:58","35.1","25.2","67","30.02","306","3","7","0.00","0.00"
"07:39:57","35.4","25.5","67","30.02","287","1.9","5","0.00","0.00"
"07:44:57","35.6","25.8","67.2","30.03","295","1","4","0.00","0.00"
"07:49:56","35.8","26","67.2","30.03","337","1","4","0.00","0.00"
"07:54:59","36","26","66.7","30.03","278","2","4","0.00","0.00"
"07:59:57","36.1","26.1","66.8","30.03","264","1.7","4","0.00","0.00"
"08:04:59","36.2","26.3","67.1","30.03","317","2","5","0.00","0.00"
"08:09:59","36.6","26.7","67.1","30.03","325","1.3","3.5","0.00","0.00"
"08:14:59","37.2","27.2","66.8","30.04","313","1","4","0.00","0.00"
"08:19:59","37.9","27.7","66.5","30.04","313","0.5","2.3","0.00","0.00"
"08:24:58","38.7","27.9","64.6","30.04","3","1","5","0.00","0.00"
"08:29:59","39.4","27.9","63.5","30.04","307","2.1","6","0.00","0.00"
"08:34:56","39.8","27.9","62.2","30.04","318","3.8","10","0.00","0.00"
"08:39:57","39.9","27.9","61.9","30.04","314","4","10.4","0.00","0.00"
"08:44:57","40","27.9","61.5","30.05","301","3.7","10.4","0.00","0.00"
"08:49:58","39.9","27.7","61.4","30.05","253","4.3","11.5","0.00","0.00"
"08:54:57","40","28","62.1","30.05","333","4.1","11.5","0.00","0.00"
"08:59:57","40.2","27.9","61.1","30.05","315","4.1","12","0.00","0.00"
"09:04:57","40.3","27.8","60.9","30.05","322","4","9.2","0.00","0.00"
"09:09:58","40.5","28.2","61.2","30.05","290","2.3","8.1","0.00","0.00"
"09:14:59","40.9","28.3","60.3","30.05","320","4.1","15","0.00","0.00"
"09:19:59","41","28.3","60.1","30.05","304","4.8","15","0.00","0.00"
"09:24:56","41.3","28.6","60.4","30.05","308","4.1","14","0.00","0.00"
"09:29:59","41.5","28.3","59.4","30.05","323","7.4","16","0.00","0.00"
"09:34:56","41.4","28.4","59.7","30.05","304","4.3","13.8","0.00","0.00"
"09:39:57","41.6","28.4","59.3","30.05","313","5.4","12","0.00","0.00"
"09:44:59","41.5","28.2","59.1","30.06","326","6.7","22","0.00","0.00"
"09:49:58","41.4","28","58.8","30.06","321","5.9","21.9","0.00","0.00"
"09:54:58","41.4","28.3","59.5","30.06","338","5.9","16","0.00","0.00"
"09:59:59","41.7","28.4","59","30.06","344","8","16.1","0.00","0.00"
"10:04:59","42.2","28.9","59","30.06","338","6.3","16.1","0.00","0.00"
"10:09:59","42.5","28.7","57.8","30.06","319","6.8","18.4","0.00","0.00"
"10:14:56","42.9","29.1","58","30.06","323","5.8","13","0.00","0.00"
"10:19:57","43.1","28.7","56.5","30.06","295","6.9","16.1","0.00","0.00"
"10:24:58","43","28.8","57","30.06","288","5.3","17","0.00","0.00"
"10:29:58","43.3","29.2","57.3","30.06","299","6.6","18","0.00","0.00"
"10:34:58","43.4","28.6","55.8","30.06","333","8.3","18.4","0.00","0.00"
"10:39:59","43.3","28.7","56.1","30.06","323","6.9","18.4","0.00","0.00"
"10:44:58","43.8","28.3","54.2","30.06","349","8.4","22","0.00","0.00"
"10:49:58","43.5","27.8","53.5","30.05","328","8.8","21.9","0.00","0.00"
"10:54:55","43.5","27.8","53.7","30.05","329","6.5","16.1","0.00","0.00"
"10:59:56","44","28.3","53.9","30.05","342","6.3","16.1","0.00","0.00"
"11:04:56","44.6","28.5","53","30.05","330","6.8","17","0.00","0.00"
"11:09:56","44.7","28","51.6","30.05","336","9.4","17.3","0.00","0.00"
"11:14:59","44.3","27.8","52","30.05","332","7.5","20","0.00","0.00"
"11:19:59","43.9","27.6","52.4","30.05","325","5.3","15","0.00","0.00"
"11:24:58","43.7","27.8","53.2","30.05","321","5","13","0.00","0.00"
"11:29:59","43.5","27.7","53.4","30.05","317","4.1","9.2","0.00","0.00"
"11:34:56","43.4","27.7","53.8","30.05","335","4.4","9.2","0.00","0.00"
"11:39:57","43.2","27.6","53.6","30.05","327","4.3","9","0.00","0.00"
"11:44:56","43.1","27.8","54.4","30.05","314","3.2","11","0.00","0.00"
"11:49:56","43.1","27.5","53.9","30.05","327","5.4","12","0.00","0.00"
"11:54:59","43","27.6","54.4","30.05","313","5.5","11.5","0.00","0.00"
"11:59:59","42.9","27.7","54.7","30.05","288","4.5","13","0.00","0.00"
"12:04:56","42.8","27.9","55.4","30.04","295","4","12.7","0.00","0.00"
"12:09:57","42.7","27.7","55.2","30.04","297","3.5","10.4","0.00","0.00"
"12:14:57","43","28.2","55.6","30.04","325","4.5","12","0.00","0.00"
"12:19:57","43.3","28.5","55.8","30.04","322","5.4","16.1","0.00","0.00"
"12:24:59","43.4","28.2","54.8","30.04","331","4.8","13","0.00","0.00"
"12:29:57","43.7","28.4","54.7","30.04","313","3.3","10","0.00","0.00"
"12:34:56","43.4","27.4","53","30.03","304","3.8","10.4","0.00","0.00"
"12:39:59","43","27.5","54.1","30.03","309","4","10.4","0.00","0.00"
"12:44:58","42.9","27.7","54.8","30.03","313","3.6","12","0.00","0.00"
"12:49:58","42.8","27.6","54.7","30.03","325","5.3","12","0.00","0.00"
"12:54:56","42.9","28","55.3","30.03","322","5.6","15","0.00","0.00"
"12:59:57","43.1","28","54.8","30.03","321","5.1","11.5","0.00","0.00"
"13:04:58","43.4","28.1","54.7","30.03","312","4.6","12","0.00","0.00"
"13:09:57","43.6","28.3","54.6","30.03","287","4.7","13","0.00","0.00"
"13:14:59","44.4","29.4","55.5","30.03","312","5.1","14","0.00","0.00"
"13:19:59","45.2","29.1","53","30.02","310","6.4","18.4","0.00","0.00"
"13:24:58","44.8","28","51.6","30.02","316","5.3","14","0.00","0.00"
"13:29:56","44.4","28.4","53.2","30.03","299","6.5","12","0.00","0.00"
"13:34:59","44.6","28.1","52.3","30.03","310","5.6","14","0.00","0.00"
"13:39:56","44.3","27.7","51.7","30.03","284","4.9","12.7","0.00","0.00"
"13:44:59","43.9","27.8","52.8","30.04","296","4","11.5","0.00","0.00"
"13:49:58","43.7","28","53.9","30.04","298","3","7","0.00","0.00"
"13:54:59","43.7","27.9","53.7","30.04","327","4.9","10","0.00","0.00"
"13:59:56","43.6","27.9","53.9","30.04","313","4.1","10.4","0.00","0.00"
"14:04:58","43.5","28","54.2","30.03","337","4.4","12","0.00","0.00"
"14:09:57","43.5","27.9","53.9","30.03","342","4.5","12","0.00","0.00"
"14:14:59","43.8","28.4","54.4","30.04","327","4.4","10.4","0.00","0.00"
"14:19:56","44","28.4","53.8","30.04","332","3.3","7","0.00","0.00"
"14:24:59","44.5","28.7","53.6","30.04","335","3.6","10","0.00","0.00"
"14:29:58","45","28.7","52.6","30.04","311","3","7","0.00","0.00"
"14:34:57","45","28.3","51.8","30.03","301","3.5","6.9","0.00","0.00"
"14:39:58","44.6","27.7","51.2","30.03","324","6.1","13","0.00","0.00"
"14:44:57","44.3","27.5","51.4","30.03","334","5.3","10.4","0.00","0.00"
"14:49:57","44.1","27.5","51.7","30.03","327","4","10.4","0.00","0.00"
"14:54:57","44.2","27.8","52.2","30.03","328","4","11.5","0.00","0.00"
"14:59:57","44.5","28.1","52.2","30.03","347","4.4","11.5","0.00","0.00"
"15:04:58","44.7","28","51.6","30.03","324","3.4","9.2","0.00","0.00"
"15:09:58","44.6","28","52","30.03","330","3.2","10.4","0.00","0.00"
"15:14:59","44.7","28","51.8","30.03","338","4.4","13","0.00","0.00"
"15:19:59","44.8","27.8","51","30.03","333","4.1","10.4","0.00","0.00"
"15:24:57","44.6","27.4","50.5","30.03","323","4.2","10.4","0.00","0.00"
"15:29:56","44.3","27.3","51","30.04","313","3.3","6","0.00","0.00"
"15:34:56","44","27.4","51.8","30.04","334","2.9","9","0.00","0.00"
"15:39:57","43.8","26.9","51.1","30.04","347","4.9","11.5","0.00","0.00"
"15:44:58","43.7","26.9","51.3","30.04","337","3.6","10","0.00","0.00"
"15:49:57","44","27.1","51.2","30.04","343","3.4","8.1","0.00","0.00"
"15:54:59","44.1","26.5","49.8","30.04","336","3.7","12","0.00","0.00"
"15:59:56","43.7","26.5","50.5","30.05","321","3.3","7","0.00","0.00"
"16:04:56","43.3","26.2","50.6","30.05","326","4.1","11","0.00","0.00"
"16:09:56","43","26.1","51","30.05","329","3.9","10.4","0.00","0.00"
"16:14:57","42.9","25.9","50.9","30.05","325","3.4","10.4","0.00","0.00"
"16:19:57","42.7","25.7","50.8","30.05","333","3.1","7","0.00","0.00"
"16:24:57","42.7","25.7","50.8","30.05","334","1.7","4","0.00","0.00"
"16:29:58","42.5","25.8","51.4","30.05","327","1","3.5","0.00","0.00"
"16:34:59","42.3","25.5","51.2","30.05","337","2.3","6","0.00","0.00"
"16:39:58","42.2","25.7","51.8","30.05","325","1.2","4","0.00","0.00"
"16:44:59","42","25.4","51.7","30.05","345","0.9","3.5","0.00","0.00"
"16:49:59","41.7","25.6","52.5","30.05","345","0.8","3","0.00","0.00"
"16:54:56","41.5","25.5","52.8","30.05","343","1","4","0.00","0.00"
"16:59:59","41.1","25.4","53.3","30.06","337","1.2","3.5","0.00","0.00"
"17:04:57","40.8","25.3","53.9","30.06","337","0.5","3.5","0.00","0.00"
"17:09:58","40.4","25.5","55","30.06","337","0.5","2.3","0.00","0.00"
"17:14:56","40","25.4","55.6","30.06","337","0.5","2.3","0.00","0.00"
"17:19:57","39.6","25.4","56.6","30.06","337","0.3","2.3","0.00","0.00"
"17:24:58","39.2","25.2","57.1","30.06","337","0","1.2","0.00","0.00"
"17:29:59","38.8","25.4","58.2","30.06","337","0","0","0.00","0.00"
"17:34:58","38.3","25.3","59.2","30.06","337","0.1","1.2","0.00","0.00"
"17:39:59","37.8","25.1","60","30.06","337","0.1","1.2","0.00","0.00"
"17:44:57","37.4","25","60.7","30.06","337","0","1.2","0.00","0.00"
"17:49:56","37.1","25","61.3","30.06","322","0.5","3","0.00","0.00"
"17:54:57","36.6","25.2","63.1","30.06","300","1","3.5","0.00","0.00"
"17:59:58","35.9","25.1","64.4","30.07","300","0.3","2","0.00","0.00"
"18:04:56","35.6","25.3","65.7","30.07","300","1.5","2.3","0.00","0.00"
"18:09:57","35.6","25.4","66","30.07","300","0.3","2.3","0.00","0.00"
"18:14:56","35.5","25.3","66","30.07","300","0.1","1.2","0.00","0.00"
"18:19:57","35.2","25.1","66.5","30.07","300","0","0","0.00","0.00"
"18:24:58","34.9","25","67.1","30.07","300","0","0","0.00","0.00"
"18:29:56","34.5","25","68","30.07","300","0.7","2.3","0.00","0.00"
"18:34:56","34.1","24.8","68.6","30.07","300","0","1.2","0.00","0.00"
"18:39:58","33.6","24.8","69.9","30.07","300","0.4","2.3","0.00","0.00"
"18:44:58","33.3","25","71.4","30.08","300","1.9","3.5","0.00","0.00"
"18:49:56","33","25","72","30.08","300","0.5","2.3","0.00","0.00"
"18:54:57","32.6","24.7","72.2","30.08","300","0.9","2.3","0.00","0.00"
"18:59:57","32.2","24.4","72.6","30.09","300","0","1.2","0.00","0.00"
"19:04:56","32","24.3","73","30.09","300","0","1","0.00","0.00"
"19:09:57","31.7","24.3","73.7","30.09","300","0.7","2.3","0.00","0.00"
"19:14:57","31.5","24.4","74.7","30.09","300","0.4","2.3","0.00","0.00"
"19:19:59","31.3","24.3","75","30.09","300","0","0","0.00","0.00"
"19:24:57","31.1","24.3","75.5","30.09","299","0","0","0.00","0.00"
"19:29:58","30.9","24.2","76","30.10","300","0","0","0.00","0.00"
"19:34:59","30.7","24.3","77","30.10","299","0.9","2.3","0.00","0.00"
"19:39:59","30.5","24.3","77.6","30.10","299","1.4","2.3","0.00","0.00"
"19:44:57","30.3","24.3","78","30.10","299","0.2","2.3","0.00","0.00"
"19:49:56","30.1","24.1","78","30.10","300","0.6","2.3","0.00","0.00"
"19:54:57","29.9","24","78.3","30.10","299","0.5","1.2","0.00","0.00"
"19:59:58","29.6","23.9","79","30.10","299","0.1","1.2","0.00","0.00"
"20:04:59","29.4","23.8","79.6","30.10","299","0.1","1.2","0.00","0.00"
"20:09:59","29.2","23.8","80","30.10","299","0.3","1.2","0.00","0.00"
"20:14:58","29.2","23.8","80","30.10","300","0","0","0.00","0.00"
"20:19:57","29","23.6","80","30.10","299","0","0","0.00","0.00"
"20:24:59","28.8","23.4","80","30.10","300","0","0","0.00","0.00"
"20:29:57","28.6","23.3","80.5","30.10","300","0","0","0.00","0.00"
"20:34:56","28.4","23.3","81","30.10","300","0","0","0.00","0.00"
"20:39:56","28.2","23.1","81","30.10","300","0","0","0.00","0.00"
"20:44:57","28","23","81.5","30.10","299","0.2","2","0.00","0.00"
"20:49:58","27.9","23.1","82.2","30.10","299","1.6","2.3","0.00","0.00"
"20:54:56","27.9","23.4","83","30.10","299","1.2","2.3","0.00","0.00"
"20:59:56","28","23.4","82.8","30.10","300","0","1","0.00","0.00"
"21:04:58","27.8","23","82","30.10","300","0","0","0.00","0.00"
"21:09:59","27.7","22.9","82","30.10","300","0","0","0.00","0.00"
"21:14:58","27.5","22.9","82.5","30.10","300","0","0","0.00","0.00"
"21:19:59","27.3","22.7","82.6","30.10","300","0","0","0.00","0.00"
"21:24:56","27.2","22.7","83","30.10","300","0","0","0.00","0.00"
"21:29:58","27","22.5","83","30.11","300","0","0","0.00","0.00"
"21:34:58","26.9","22.7","84","30.11","299","0.2","2.3","0.00","0.00"
"21:39:57","26.9","23","85","30.11","299","0.9","2.3","0.00","0.00"
"21:44:59","27","23.1","85","30.11","300","0","0","0.00","0.00"
"21:49:58","27","22.9","84.2","30.11","299","0.1","2","0.00","0.00"
"21:54:57","27","22.8","84","30.11","299","0.2","2.3","0.00","0.00"
"21:59:58","26.9","22.7","84","30.11","300","0","1.2","0.00","0.00"
"22:04:56","26.7","22.5","84","30.11","299","0.2","1.2","0.00","0.00"
"22:09:57","26.4","22.2","84","30.11","300","0","0","0.00","0.00"
"22:14:59","26.2","22.2","84.5","30.11","299","0.6","3.5","0.00","0.00"
"22:19:59","26.1","22.2","85","30.10","299","0.2","1.2","0.00","0.00"
"22:24:59","25.9","22","85","30.10","299","0","0","0.00","0.00"
"22:29:56","25.8","21.9","85","30.11","299","0.3","1.2","0.00","0.00"
"22:34:56","25.8","21.9","85","30.11","299","0.5","1.2","0.00","0.00"
"22:39:57","25.9","22","85","30.11","299","0.3","1.2","0.00","0.00"
"22:44:56","25.8","22.1","85.3","30.11","299","0","0","0.00","0.00"
"22:49:56","25.9","22.3","86","30.11","299","0","0","0.00","0.00"
"22:54:56","26","22.4","86","30.11","299","1.2","3.5","0.00","0.00"
"22:59:56","26.1","22.6","86.2","30.11","299","1.9","3.5","0.00","0.00"
"23:04:57","26.2","22.7","86.4","30.10","300","0.5","2.3","0.00","0.00"
"23:09:58","26.3","22.7","86","30.10","300","0","1.2","0.00","0.00"
"23:14:59","26.3","22.9","86.7","30.11","300","0","1","0.00","0.00"
"23:19:56","26.4","23.1","87","30.11","300","0.1","1.2","0.00","0.00"
"23:24:56","26.5","23.2","87","30.11","300","0","1","0.00","0.00"
"23:29:56","26.6","23.3","87","30.11","300","0","1.2","0.00","0.00"
"23:34:56","26.7","23.4","87","30.11","300","0","1.2","0.00","0.00"
"23:39:58","26.9","23.5","87","30.11","300","0.2","2","0.00","0.00"
"23:44:59","27.1","23.7","86.6","30.11","300","0","1","0.00","0.00"
"23:49:56","27.3","23.9","86.7","30.11","300","0.1","1.2","0.00","0.00"
"23:54:59","27.5","23.9","86","30.11","300","0","0","0.00","0.00"
"23:59:56","27.7","24.1","86","30.11","300","0.9","2.3","0.00","0.00"
